period_start,C,m1,H,J0,J1,J2,J3,J4,J5,JA,JB,JC,JD,JJ,JK,JN,#
2016-11-01 00:02:23,0.01,1.00,0.00,17.64,23.14,26.70,14.81,49.72,1006.36,2050.00,3147.97,2890.04,3223.02,599.87,600.61,46.25,0000 0000 0000 0000 000000
2016-11-01 00:07:23,-0.00,1.00,0.00,17.70,23.15,26.69,14.77,48.33,1006.36,2050.00,3147.84,2890.06,3223.00,599.12,599.76,46.30,0000 0000 0000 0000 000000
2016-11-01 00:12:25,0.01,1.00,0.00,17.73,23.16,26.67,14.72,49.76,1006.38,2050.00,3147.19,2890.03,3222.98,600.30,601.03,46.35,0000 0000 0000 0000 000000
2016-11-01 00:17:26,0.01,1.00,0.00,17.79,23.17,26.71,14.79,49.70,1006.38,2049.98,3147.00,2890.00,3222.59,600.17,600.81,46.40,0000 0000 0000 0000 000000
2016-11-01 00:22:28,0.01,1.00,0.00,17.82,23.17,26.73,14.73,49.62,1006.37,2049.97,3146.86,2890.00,3222.04,599.69,600.49,46.45,0000 0000 0000 0000 000000
2016-11-01 00:27:29,0.01,1.00,0.00,17.80,23.18,26.69,14.77,49.13,1006.40,2049.97,3146.22,2889.99,3222.00,599.66,600.25,46.50,0000 0000 0000 0000 000000
2016-11-01 00:32:31,0.00,1.00,0.00,17.79,23.19,26.74,14.80,49.57,1006.37,2049.97,3146.03,2889.98,3221.99,600.03,600.68,46.55,0000 0000 0000 0000 000000
2016-11-01 00:37:32,0.00,1.00,0.00,17.79,23.19,26.73,14.76,48.59,1006.37,2049.96,3146.00,2889.98,3221.96,599.83,600.46,46.60,0000 0000 0000 0000 000000
2016-11-01 00:42:33,0.00,1.01,0.00,17.80,23.20,26.72,14.85,49.59,1006.37,2049.93,3145.95,2889.89,3221.65,600.40,601.00,46.66,0000 0000 0000 0000 000000
2016-11-01 00:47:35,0.01,1.01,0.00,17.80,23.20,26.73,14.73,49.76,1006.37,2049.72,3145.26,2889.40,3221.05,600.07,600.63,46.71,0000 0000 0000 0000 000000
2016-11-01 00:52:36,0.01,1.01,0.00,17.82,23.22,26.74,14.74,49.52,1006.36,2049.68,3145.01,2889.20,3221.00,599.62,600.10,46.76,0000 0000 0000 0000 000000
2016-11-01 00:57:37,0.00,1.01,0.00,17.84,23.22,26.76,14.69,49.52,1006.36,2049.77,3144.93,2889.11,3220.98,599.25,599.61,46.81,0000 0000 0000 0000 000000
2016-11-01 01:02:38,0.01,1.01,0.00,17.86,23.22,26.80,14.79,49.20,1006.29,2049.56,3144.34,2889.01,3220.57,599.85,600.44,46.86,0000 0000 0000 0000 000000
2016-11-01 01:07:39,0.00,1.01,0.00,17.88,23.24,26.77,14.81,49.67,1006.25,2049.52,3144.03,2889.00,3220.13,600.59,600.92,46.91,0000 0000 0000 0000 000000
2016-11-01 01:12:41,-0.01,1.01,0.00,17.87,23.24,26.80,14.68,49.43,1006.24,2049.40,3143.99,2889.00,3220.01,599.69,599.99,46.96,0000 0000 0000 0000 000000
2016-11-01 01:17:42,-0.00,1.01,0.00,17.92,23.25,26.81,14.70,49.22,1006.26,2049.30,3143.92,2889.00,3220.00,599.61,599.88,47.01,0000 0000 0000 0000 000000
2016-11-01 01:22:43,0.00,1.01,0.00,17.90,23.26,26.81,14.76,49.48,1006.30,2049.12,3143.24,2888.99,3219.90,599.44,599.91,47.06,0000 0000 0000 0000 000000
2016-11-01 01:27:45,0.02,1.01,0.00,17.93,23.27,26.85,14.84,48.46,1006.36,2049.20,3143.06,2888.98,3219.63,600.83,601.13,47.11,0000 0000 0000 0000 000000
2016-11-01 01:32:46,0.01,1.01,0.00,17.96,23.28,26.85,14.82,49.68,1006.35,2049.05,3142.83,2888.77,3219.05,599.69,599.84,47.16,0000 0000 0000 0000 000000
2016-11-01 01:37:47,0.01,1.01,0.00,17.94,23.29,26.83,14.75,49.52,1006.36,2049.04,3142.19,2888.48,3218.99,599.55,599.88,47.21,0000 0000 0000 0000 000000
2016-11-01 01:42:48,0.01,1.01,0.00,17.94,23.31,26.85,14.72,48.27,1006.36,2049.03,3142.01,2888.28,3218.92,599.56,599.88,47.26,0000 0000 0000 0000 000000
2016-11-01 01:47:50,0.01,1.01,0.00,17.98,23.32,26.87,14.76,48.23,1006.36,2049.04,3141.99,2888.10,3218.26,600.65,600.84,47.31,0000 0000 0000 0000 000000
2016-11-01 01:52:51,0.01,1.01,0.00,18.02,23.34,26.91,14.68,49.83,1006.36,2049.00,3141.39,2888.00,3218.01,600.07,600.13,47.36,0000 0000 0000 0000 000000
2016-11-01 01:57:52,0.00,1.01,0.00,18.05,23.34,26.90,14.76,49.60,1006.36,2049.00,3141.02,2888.00,3217.98,600.09,600.17,47.41,0000 0000 0000 0000 000000
2016-11-01 02:02:54,0.01,1.01,0.00,18.04,23.36,26.90,14.77,49.57,1006.36,2049.00,3140.98,2887.99,3217.58,599.95,599.85,47.46,0000 0000 0000 0000 000000
2016-11-01 02:07:55,0.01,1.01,0.00,18.06,23.37,26.93,14.74,49.71,1006.36,2049.00,3140.66,2887.95,3217.08,599.84,599.80,47.51,0000 0000 0000 0000 000000
2016-11-01 02:12:57,0.01,1.01,0.00,18.06,23.37,26.93,14.58,49.23,1006.35,2048.99,3140.05,2887.82,3217.00,599.40,599.17,47.56,0000 0000 0000 0000 000000
2016-11-01 02:17:58,0.01,1.01,0.00,18.09,23.39,26.95,14.75,49.63,1006.33,2048.99,3139.99,2887.47,3216.98,600.59,600.56,47.61,0000 0000 0000 0000 000000
2016-11-01 02:22:59,0.02,1.01,0.00,18.13,23.40,27.00,14.79,49.36,1006.30,2048.99,3139.62,2887.17,3216.65,599.54,599.43,47.66,0000 0000 0000 0000 000000
2016-11-01 02:28:01,0.01,1.02,0.00,18.13,23.42,27.02,14.74,49.07,1006.31,2048.99,3139.07,2887.04,3216.06,600.65,600.50,47.71,0000 0000 0000 0000 000000
2016-11-01 02:33:02,0.00,1.02,0.00,18.12,23.43,27.01,14.66,49.58,1006.35,2048.97,3138.92,2887.01,3215.99,599.76,599.57,47.77,0000 0000 0000 0000 000000
2016-11-01 02:38:03,0.01,1.02,0.00,18.12,23.45,27.05,14.64,48.74,1006.36,2048.97,3138.27,2886.99,3215.83,599.34,599.40,47.82,0000 0000 0000 0000 000000
2016-11-01 02:43:04,0.01,1.02,0.00,18.15,23.47,27.08,14.78,48.24,1006.37,2048.97,3138.07,2886.99,3215.40,600.12,599.99,47.87,0000 0000 0000 0000 000000
2016-11-01 02:48:05,0.00,1.02,0.00,18.24,23.49,27.08,14.77,49.18,1006.38,2048.95,3137.98,2886.96,3215.02,600.11,599.90,47.92,0000 0000 0000 0000 000000
2016-11-01 02:53:07,0.00,1.02,0.00,18.23,23.50,27.08,14.72,49.64,1006.39,2048.75,3137.36,2886.69,3214.96,600.13,599.70,47.97,0000 0000 0000 0000 000000
2016-11-01 02:58:08,-0.01,1.02,0.00,18.23,23.51,27.08,14.69,49.60,1006.38,2048.34,3137.00,2886.12,3214.33,600.21,599.91,48.02,0000 0000 0000 0000 000000
2016-11-01 03:03:09,-0.00,1.02,0.00,18.25,23.53,27.12,14.78,48.77,1006.36,2048.13,3136.94,2886.02,3214.01,600.14,599.63,48.07,0000 0000 0000 0000 000000
2016-11-01 03:08:11,0.01,1.02,0.00,18.28,23.54,27.15,14.83,49.74,1006.37,2048.08,3136.20,2886.00,3213.87,600.28,599.88,48.12,0000 0000 0000 0000 000000
2016-11-01 03:13:12,0.02,1.02,0.00,18.27,23.56,27.18,14.70,49.54,1006.36,2048.03,3135.72,2886.00,3213.21,599.44,599.11,48.17,0000 0000 0000 0000 000000
2016-11-01 03:18:13,0.01,1.02,0.00,18.30,23.57,27.23,14.77,48.77,1006.36,2048.02,3135.07,2885.98,3213.00,599.86,599.40,48.22,0000 0000 0000 0000 000000
2016-11-01 03:23:14,0.00,1.02,0.00,18.32,23.59,27.23,14.70,49.15,1006.36,2048.00,3135.00,2885.90,3212.92,599.73,599.23,48.27,0000 0000 0000 0000 000000
2016-11-01 03:28:16,0.01,1.02,0.00,18.30,23.61,27.23,14.75,48.57,1006.36,2048.00,3134.92,2885.78,3212.37,600.67,600.36,48.32,0000 0000 0000 0000 000000
2016-11-01 03:33:17,0.03,1.02,0.00,18.34,23.62,27.26,14.77,49.61,1006.37,2047.99,3134.10,2885.13,3212.00,599.95,599.35,48.37,0000 0000 0000 0000 000000
2016-11-01 03:38:18,0.01,1.02,0.00,18.36,23.64,27.27,14.69,49.32,1006.38,2047.98,3133.90,2885.01,3211.72,600.03,599.46,48.42,0000 0000 0000 0000 000000
2016-11-01 03:43:19,0.01,1.02,0.00,18.39,23.66,27.30,14.79,49.49,1006.38,2047.97,3133.20,2885.00,3211.07,599.44,598.82,48.47,0000 0000 0000 0000 000000
2016-11-01 03:48:21,0.00,1.02,0.00,18.40,23.68,27.32,14.80,48.87,1006.37,2047.94,3133.01,2884.99,3211.00,600.63,599.99,48.52,0000 0000 0000 0000 000000
2016-11-01 03:53:22,-0.01,1.02,0.00,18.41,23.70,27.35,14.74,49.70,1006.38,2047.83,3132.77,2884.99,3210.94,600.03,599.20,48.57,0000 0000 0000 0000 000000
2016-11-01 03:58:24,0.00,1.02,0.00,18.44,23.71,27.36,14.75,49.47,1006.45,2047.64,3132.05,2884.93,3210.21,599.64,599.15,48.62,0000 0000 0000 0000 000000
2016-11-01 04:03:25,-0.01,1.02,0.00,18.45,23.73,27.37,14.78,48.44,1006.68,2047.43,3131.97,2884.76,3210.01,600.47,599.86,48.67,0000 0000 0000 0000 000000
2016-11-01 04:08:26,0.01,1.02,0.00,18.48,23.75,27.36,14.79,49.96,1006.84,2047.07,3131.19,2884.11,3209.77,600.19,599.66,48.72,0000 0000 0000 0000 000000
2016-11-01 04:13:28,0.00,1.02,0.00,18.49,23.76,27.40,14.65,49.20,1006.82,2047.01,3130.95,2884.01,3209.08,599.26,598.67,48.77,0000 0000 0000 0000 000000
2016-11-01 04:18:29,0.00,1.02,0.00,18.52,23.79,27.40,14.78,48.04,1006.85,2047.01,3130.68,2884.00,3209.00,600.21,599.59,48.82,0000 0000 0000 0000 000000
2016-11-01 04:23:30,0.01,1.02,0.00,18.57,23.81,27.42,14.65,48.01,1006.80,2047.00,3130.04,2883.99,3208.87,599.80,599.11,48.88,0000 0000 0000 0000 000000
2016-11-01 04:28:31,0.02,1.03,0.00,18.53,23.82,27.45,14.79,49.36,1006.73,2047.00,3129.62,2883.98,3208.20,600.53,599.74,48.93,0000 0000 0000 0000 000000
2016-11-01 04:33:33,0.01,1.03,0.00,18.57,23.84,27.45,14.70,49.72,1006.81,2047.00,3129.02,2883.85,3208.00,599.87,599.14,48.98,0000 0000 0000 0000 000000
2016-11-01 04:38:34,0.03,1.03,0.00,18.58,23.85,27.47,14.67,49.33,1006.85,2047.00,3128.81,2883.38,3207.70,599.76,598.87,49.03,0000 0000 0000 0000 000000
2016-11-01 04:43:35,0.02,1.03,0.00,18.59,23.87,27.50,14.69,49.32,1006.85,2047.00,3128.18,2883.06,3207.06,599.55,598.74,49.08,0000 0000 0000 0000 000000
2016-11-01 04:48:37,0.00,1.03,0.00,18.61,23.88,27.52,14.67,49.22,1006.85,2047.00,3127.99,2883.01,3206.99,599.67,599.03,49.13,0000 0000 0000 0000 000000
2016-11-01 04:53:38,0.02,1.03,0.00,18.60,23.90,27.53,14.72,49.62,1006.85,2047.00,3127.40,2883.00,3206.73,600.18,599.47,49.18,0000 0000 0000 0000 000000
2016-11-01 04:58:39,0.01,1.03,0.00,18.60,23.92,27.52,14.68,49.22,1006.85,2047.00,3127.01,2883.00,3206.09,599.49,598.75,49.23,0000 0000 0000 0000 000000
2016-11-01 05:03:40,0.00,1.03,0.00,18.63,23.93,27.53,14.65,49.58,1006.85,2047.00,3126.95,2882.98,3206.01,599.74,598.87,49.28,0000 0000 0000 0000 000000
2016-11-01 05:08:41,0.01,1.03,0.00,18.67,23.95,27.58,14.80,49.60,1006.86,2046.97,3126.15,2882.86,3205.89,599.99,599.06,49.33,0000 0000 0000 0000 000000
2016-11-01 05:13:42,0.02,1.03,0.00,18.70,23.97,27.62,14.64,49.23,1006.86,2046.97,3125.98,2882.40,3205.23,599.56,598.68,49.38,0000 0000 0000 0000 000000
2016-11-01 05:18:43,0.01,1.03,0.00,18.69,23.98,27.59,14.70,49.00,1006.95,2046.94,3125.50,2882.16,3205.01,600.24,599.34,49.43,0000 0000 0000 0000 000000
2016-11-01 05:23:44,-0.01,1.03,0.00,18.67,24.00,27.62,14.68,48.58,1006.93,2046.81,3125.01,2882.02,3204.97,599.49,598.45,49.48,0000 0000 0000 0000 000000
2016-11-01 05:28:46,0.00,1.03,0.00,18.73,24.02,27.61,14.74,49.57,1007.05,2046.70,3124.67,2882.00,3204.47,600.53,599.59,49.53,0000 0000 0000 0000 000000
2016-11-01 05:33:47,-0.03,1.03,0.00,18.74,24.02,27.59,14.68,49.44,1007.09,2046.18,3124.03,2881.99,3204.01,599.68,598.72,49.58,0000 0000 0000 0000 000000
2016-11-01 05:38:48,0.00,1.03,0.00,18.74,24.04,27.64,14.68,48.66,1007.13,2046.12,3123.85,2881.97,3203.99,599.30,598.38,49.63,0000 0000 0000 0000 000000
2016-11-01 05:43:49,0.01,1.03,0.00,18.73,24.06,27.67,14.69,47.98,1007.05,2046.07,3123.17,2881.95,3203.54,599.88,598.94,49.68,0000 0000 0000 0000 000000
2016-11-01 05:48:51,0.04,1.04,0.00,18.73,24.07,27.63,14.77,49.98,1007.14,2046.02,3122.59,2881.28,3203.01,601.08,600.15,49.73,0000 0000 0000 0000 000000
2016-11-01 05:53:52,0.01,1.04,0.00,18.72,24.09,27.68,14.83,49.92,1007.25,2046.02,3122.02,2881.04,3202.96,600.42,599.58,49.78,0000 0000 0000 0000 000000
2016-11-01 05:58:53,0.02,1.04,0.00,18.72,24.10,27.68,14.67,49.58,1007.31,2046.01,3121.74,2881.00,3202.24,600.41,599.66,49.83,0000 0000 0000 0000 000000
2016-11-01 06:03:54,0.01,1.04,0.00,18.76,24.12,27.68,14.74,48.92,1007.33,2046.00,3121.07,2881.00,3202.01,600.30,599.48,49.88,0000 0000 0000 0000 000000
2016-11-01 06:08:55,0.00,1.04,0.00,18.76,24.12,27.70,14.73,48.92,1007.31,2046.00,3120.92,2881.00,3201.96,599.75,598.80,49.94,0000 0000 0000 0000 000000
2016-11-01 06:13:57,0.03,1.04,0.00,18.77,24.15,27.72,14.75,49.43,1007.31,2046.00,3120.17,2880.99,3201.38,600.76,599.81,49.99,0000 0000 0000 0000 000000
2016-11-01 06:18:58,0.01,1.04,0.00,18.82,24.15,27.72,14.75,49.71,1007.33,2046.00,3119.62,2880.91,3201.00,599.65,598.69,50.04,0000 0000 0000 0000 000000
2016-11-01 06:23:59,0.01,1.04,0.00,18.86,24.16,27.74,14.65,48.27,1007.34,2046.00,3119.05,2880.71,3200.98,599.92,598.89,50.09,0000 0000 0000 0000 000000
2016-11-01 06:29:01,0.03,1.04,0.00,18.82,24.17,27.72,14.77,49.69,1007.34,2046.00,3118.90,2880.32,3200.37,600.19,599.36,50.14,0000 0000 0000 0000 000000
2016-11-01 06:34:02,0.01,1.04,0.00,18.80,24.18,27.75,14.77,49.78,1007.37,2045.97,3118.14,2880.03,3200.00,600.03,598.89,50.19,0000 0000 0000 0000 000000
2016-11-01 06:39:03,0.00,1.04,0.00,18.83,24.20,27.75,14.72,49.38,1007.56,2045.96,3118.00,2880.01,3199.96,599.46,598.45,50.24,0000 0000 0000 0000 000000
2016-11-01 06:44:04,0.01,1.04,0.00,18.85,24.22,27.77,14.77,48.90,1007.80,2045.91,3117.76,2880.01,3199.63,600.73,600.00,50.29,0000 0000 0000 0000 000000
2016-11-01 06:49:06,0.01,1.04,0.00,18.87,24.22,27.80,14.63,48.48,1007.78,2045.85,3117.09,2880.00,3199.02,599.39,598.65,50.34,0000 0000 0000 0000 000000
2016-11-01 06:54:07,-0.01,1.04,0.00,18.87,24.24,27.79,14.73,49.46,1007.81,2045.73,3116.96,2879.99,3199.00,600.23,599.57,50.39,0000 0000 0000 0000 000000
2016-11-01 06:59:08,0.00,1.04,0.00,18.89,24.25,27.83,14.62,48.67,1007.79,2045.66,3116.59,2879.98,3199.00,599.28,598.51,50.44,0000 0000 0000 0000 000000
2016-11-01 07:04:09,-0.01,1.04,0.00,18.90,24.26,27.81,14.74,49.53,1007.83,2045.42,3116.05,2879.93,3198.47,600.16,599.36,50.49,0000 0000 0000 0000 000000
2016-11-01 07:09:11,0.01,1.04,0.00,18.93,24.27,27.82,14.82,49.67,1007.82,2045.16,3115.66,2879.59,3198.01,600.32,599.36,50.54,0000 0000 0000 0000 000000
2016-11-01 07:14:12,0.01,1.05,0.00,18.94,24.28,27.83,14.75,49.17,1007.83,2045.05,3115.03,2879.10,3197.99,600.40,599.55,50.59,0000 0000 0000 0000 000000
2016-11-01 07:19:14,0.01,1.05,0.00,18.96,24.30,27.84,14.65,48.49,1007.84,2045.03,3114.93,2879.02,3197.66,600.13,599.22,50.64,0000 0000 0000 0000 000000
2016-11-01 07:24:15,0.02,1.05,0.00,19.00,24.30,27.87,14.71,49.09,1007.83,2045.02,3114.26,2879.01,3197.13,599.34,598.43,50.69,0000 0000 0000 0000 000000
2016-11-01 07:29:16,0.00,1.05,0.00,19.01,24.32,27.87,14.73,49.17,1007.83,2045.01,3113.98,2879.00,3197.00,600.17,599.23,50.74,0000 0000 0000 0000 000000
2016-11-01 07:34:18,0.01,1.05,0.00,18.98,24.33,27.86,14.63,48.14,1007.83,2045.00,3113.50,2879.00,3196.94,599.27,598.32,50.79,0000 0000 0000 0000 000000
2016-11-01 07:39:19,0.02,1.05,0.00,18.97,24.35,27.88,14.70,48.00,1007.83,2045.00,3113.05,2879.00,3196.41,600.10,599.14,50.84,0000 0000 0000 0000 000000
2016-11-01 07:44:20,0.01,1.05,0.00,19.06,24.37,27.90,14.78,49.38,1007.85,2045.00,3112.90,2878.92,3196.03,600.74,599.66,50.89,0000 0000 0000 0000 000000
2016-11-01 07:49:21,0.01,1.05,0.00,19.04,24.37,27.94,14.72,48.58,1007.93,2045.00,3112.40,2878.80,3195.99,599.57,598.36,50.94,0000 0000 0000 0000 000000
2016-11-01 07:54:23,0.01,1.05,0.00,19.02,24.40,27.95,14.71,47.92,1008.01,2044.99,3112.11,2878.66,3195.91,600.18,599.22,51.00,0000 0000 0000 0000 000000
2016-11-01 07:59:24,0.02,1.05,0.00,19.08,24.40,27.96,14.70,47.98,1008.06,2044.98,3111.99,2878.14,3195.35,599.84,598.82,51.05,0000 0000 0000 0000 000000
2016-11-01 08:04:25,0.01,1.05,0.00,19.06,24.42,27.97,14.77,49.47,1008.20,2044.96,3111.42,2878.02,3195.01,601.10,600.10,51.10,0000 0000 0000 0000 000000
2016-11-01 08:09:26,-0.01,1.05,0.00,19.09,24.42,27.97,14.64,49.35,1008.28,2044.86,3111.00,2877.99,3194.97,599.74,598.83,51.15,0000 0000 0000 0000 000000
2016-11-01 08:14:27,-0.00,1.05,0.00,19.09,24.44,28.01,14.67,48.08,1008.30,2044.72,3110.97,2877.98,3194.76,599.53,598.59,51.20,0000 0000 0000 0000 000000
2016-11-01 08:19:28,0.01,1.05,0.00,19.11,24.46,28.01,14.76,47.80,1008.31,2044.72,3110.80,2877.99,3194.26,600.16,599.13,51.25,0000 0000 0000 0000 000000
2016-11-01 08:24:29,-0.00,1.05,0.00,19.10,24.47,28.01,14.71,48.62,1008.31,2044.55,3110.11,2877.83,3194.02,600.66,599.79,51.30,0000 0000 0000 0000 000000
2016-11-01 08:29:31,-0.01,1.05,0.00,19.11,24.47,28.02,14.67,49.34,1008.34,2044.09,3109.99,2877.15,3194.00,599.43,598.57,51.35,0000 0000 0000 0000 000000
2016-11-01 08:34:32,0.00,1.05,0.00,19.16,24.50,28.01,14.71,47.77,1008.33,2044.05,3109.93,2877.03,3193.94,599.87,598.86,51.40,0000 0000 0000 0000 000000
2016-11-01 08:39:34,0.02,1.05,0.00,19.19,24.51,28.07,14.69,47.68,1008.38,2044.05,3109.53,2877.01,3193.65,599.98,598.97,51.45,0000 0000 0000 0000 000000
2016-11-01 08:44:35,0.01,1.05,0.00,19.19,24.52,28.06,14.72,48.13,1008.49,2044.03,3109.13,2877.00,3193.17,600.20,599.19,51.50,0000 0000 0000 0000 000000
2016-11-01 08:49:36,0.00,1.05,0.00,19.18,24.52,28.07,14.72,49.67,1008.70,2044.00,3109.00,2877.00,3193.01,599.94,599.07,51.55,0000 0000 0000 0000 000000
2016-11-01 08:54:37,0.00,1.05,0.00,19.20,24.54,28.10,14.75,49.87,1008.61,2044.00,3108.96,2876.97,3192.98,600.35,599.35,51.60,0000 0000 0000 0000 000000
2016-11-01 08:59:38,0.01,1.05,0.00,19.24,24.55,28.12,14.71,49.39,1008.63,2044.00,3108.70,2876.91,3192.95,599.67,598.77,51.65,0000 0000 0000 0000 000000
2016-11-01 09:04:40,0.01,1.05,0.00,19.23,24.57,28.11,14.59,48.92,1008.44,2044.00,3108.41,2876.82,3192.80,599.77,598.47,51.70,0000 0000 0000 0000 000000
2016-11-01 09:09:41,0.03,1.06,0.00,19.25,24.57,28.16,14.85,49.74,1008.36,2043.99,3108.04,2876.26,3192.14,600.21,598.93,51.75,0000 0000 0000 0000 000000
2016-11-01 09:14:42,0.00,1.06,0.00,19.24,24.59,28.18,14.68,48.03,1008.34,2043.99,3107.99,2876.07,3192.01,599.28,598.14,51.80,0000 0000 0000 0000 000000
2016-11-01 09:19:44,0.01,1.06,0.00,19.25,24.60,28.18,14.82,49.88,1008.34,2043.98,3107.55,2876.00,3192.00,600.41,599.15,51.85,0000 0000 0000 0000 000000
2016-11-01 09:24:45,-0.00,1.06,0.00,19.28,24.61,28.19,14.63,48.98,1008.37,2043.98,3107.37,2876.00,3191.99,599.39,598.15,51.90,0000 0000 0000 0000 000000
2016-11-01 09:29:46,0.01,1.06,0.00,19.30,24.62,28.18,14.65,49.23,1008.45,2043.98,3107.05,2876.00,3191.68,599.03,597.74,51.95,0000 0000 0000 0000 000000
2016-11-01 09:34:48,0.01,1.06,0.00,19.28,24.62,28.19,14.74,49.50,1008.42,2043.96,3107.00,2875.98,3191.25,600.34,599.00,52.00,0000 0000 0000 0000 000000
2016-11-01 09:39:49,0.00,1.06,0.00,19.28,24.64,28.19,14.67,48.13,1008.58,2043.96,3106.98,2875.97,3191.02,599.53,598.49,52.06,0000 0000 0000 0000 000000
2016-11-01 09:44:50,0.01,1.06,0.00,19.31,24.66,28.21,14.65,47.91,1008.71,2043.96,3106.76,2875.86,3191.01,599.77,598.64,52.11,0000 0000 0000 0000 000000
2016-11-01 09:49:52,-0.01,1.06,0.00,19.31,24.67,28.22,14.78,49.08,1008.75,2043.67,3106.17,2875.31,3190.98,600.62,599.50,52.16,0000 0000 0000 0000 000000
2016-11-01 09:54:53,-0.00,1.06,0.00,19.32,24.67,28.23,14.62,48.98,1008.77,2043.27,3106.00,2875.01,3190.67,599.29,598.25,52.21,0000 0000 0000 0000 000000
2016-11-01 09:59:54,-0.00,1.06,0.00,19.32,24.68,28.23,14.62,48.02,1008.78,2043.26,3105.99,2875.01,3190.48,599.96,598.83,52.26,0000 0000 0000 0000 000000
2016-11-01 10:04:55,-0.01,1.06,0.00,19.34,24.70,28.25,14.72,47.99,1008.79,2043.22,3105.99,2875.00,3190.11,600.06,598.90,52.31,0000 0000 0000 0000 000000
2016-11-01 10:09:56,0.01,1.06,0.00,19.31,24.70,28.25,14.73,49.62,1008.78,2043.06,3105.47,2874.99,3190.01,600.80,599.78,52.36,0000 0000 0000 0000 000000
2016-11-01 10:14:57,0.00,1.06,0.00,19.32,24.70,28.25,14.76,49.83,1008.79,2043.03,3105.02,2874.98,3190.00,599.79,598.98,52.41,0000 0000 0000 0000 000000
2016-11-01 10:19:58,0.00,1.06,0.00,19.33,24.70,28.27,14.78,49.84,1008.76,2043.02,3105.00,2874.91,3189.98,599.85,598.69,52.46,0000 0000 0000 0000 000000
2016-11-01 10:24:59,0.02,1.06,0.00,19.34,24.72,28.27,14.74,49.77,1008.74,2043.01,3104.96,2874.63,3189.73,600.37,599.19,52.51,0000 0000 0000 0000 000000
2016-11-01 10:30:01,0.01,1.06,0.00,19.33,24.72,28.27,14.66,48.64,1008.77,2043.01,3104.91,2874.31,3189.23,599.72,598.62,52.56,0000 0000 0000 0000 000000
2016-11-01 10:35:02,0.02,1.06,0.00,19.29,24.72,28.29,14.83,50.04,1008.75,2043.00,3104.33,2874.10,3189.05,599.90,598.83,52.61,0000 0000 0000 0000 000000
2016-11-01 10:40:03,0.00,1.06,0.00,19.32,24.72,28.29,14.75,49.33,1008.74,2043.01,3104.08,2874.02,3189.01,599.79,598.64,52.66,0000 0000 0000 0000 000000
2016-11-01 10:45:04,0.00,1.06,0.00,19.32,24.74,28.29,14.66,49.34,1008.70,2043.00,3104.01,2874.01,3189.00,599.88,598.90,52.71,0000 0000 0000 0000 000000
2016-11-01 10:50:06,0.00,1.06,0.00,19.33,24.75,28.28,14.69,49.48,1008.70,2043.00,3103.99,2874.00,3188.98,600.39,599.27,52.76,0000 0000 0000 0000 000000
2016-11-01 10:55:07,0.00,1.06,0.00,19.34,24.75,28.29,14.70,48.68,1008.78,2043.00,3103.97,2874.00,3188.94,599.35,598.20,52.81,0000 0000 0000 0000 000000
2016-11-01 11:00:09,0.00,1.06,0.00,19.35,24.75,28.29,14.80,49.11,1008.76,2043.00,3103.90,2874.00,3188.87,600.66,599.53,52.86,0000 0000 0000 0000 000000
2016-11-01 11:05:10,0.02,1.06,0.00,19.31,24.75,28.30,14.60,48.92,1008.64,2043.00,3103.34,2873.98,3188.28,599.25,598.15,52.91,0000 0000 0000 0000 000000
2016-11-01 11:10:11,0.00,1.06,0.00,19.30,24.77,28.29,14.66,48.08,1008.62,2043.00,3103.12,2873.97,3188.07,600.15,598.96,52.96,0000 0000 0000 0000 000000
2016-11-01 11:15:13,0.00,1.06,0.00,19.30,24.77,28.32,14.87,48.90,1008.72,2043.00,3103.00,2873.81,3188.00,600.76,599.68,53.01,0000 0000 0000 0000 000000
2016-11-01 11:20:14,0.02,1.06,0.00,19.30,24.77,28.33,14.79,49.88,1008.74,2043.00,3102.97,2873.12,3187.99,599.72,598.61,53.06,0000 0000 0000 0000 000000
2016-11-01 11:25:15,0.01,1.06,0.00,19.30,24.77,28.31,14.64,49.11,1008.67,2042.99,3102.49,2873.03,3187.97,599.39,598.26,53.11,0000 0000 0000 0000 000000
2016-11-01 11:30:16,0.00,1.06,0.00,19.29,24.77,28.33,14.80,49.73,1008.45,2042.99,3102.16,2873.01,3187.86,600.99,599.65,53.17,0000 0000 0000 0000 000000
2016-11-01 11:35:18,0.01,1.06,0.00,19.29,24.77,28.31,14.66,48.98,1008.41,2042.98,3102.00,2873.00,3187.20,599.18,598.04,53.22,0000 0000 0000 0000 000000
2016-11-01 11:40:19,0.00,1.07,0.00,19.27,24.77,28.32,14.61,48.14,1008.36,2042.99,3102.00,2873.00,3187.08,599.69,598.66,53.27,0000 0000 0000 0000 000000
2016-11-01 11:45:20,0.01,1.07,0.00,19.22,24.77,28.30,14.76,49.66,1008.34,2042.99,3101.66,2872.99,3187.00,601.04,599.86,53.32,0000 0000 0000 0000 000000
2016-11-01 11:50:21,0.01,1.07,0.00,19.23,24.77,28.33,14.73,49.87,1008.33,2042.98,3101.05,2872.88,3186.99,600.19,599.04,53.37,0000 0000 0000 0000 000000
2016-11-01 11:55:23,0.00,1.07,0.00,19.23,24.77,28.35,14.71,49.61,1008.32,2042.99,3101.00,2872.73,3186.98,599.84,598.59,53.42,0000 0000 0000 0000 000000
2016-11-01 12:00:24,-0.00,1.07,0.00,19.27,24.77,28.33,14.64,48.42,1008.32,2042.99,3101.00,2872.61,3186.97,599.21,597.94,53.47,0000 0000 0000 0000 000000
2016-11-01 12:05:25,0.02,1.07,0.00,19.26,24.77,28.33,14.76,48.03,1008.32,2042.99,3100.98,2872.29,3186.60,600.01,598.74,53.52,0000 0000 0000 0000 000000
2016-11-01 12:10:26,0.01,1.07,0.00,19.28,24.79,28.30,14.65,48.10,1008.32,2042.99,3100.82,2872.06,3186.15,599.74,598.45,53.57,0000 0000 0000 0000 000000
2016-11-01 12:15:28,0.01,1.07,0.00,19.24,24.79,28.31,14.75,48.40,1008.32,2042.98,3100.17,2872.01,3186.01,600.93,599.73,53.62,0000 0000 0000 0000 000000
2016-11-01 12:20:29,0.00,1.07,0.00,19.30,24.78,28.35,14.68,49.92,1008.32,2042.98,3100.01,2872.00,3186.00,599.82,598.46,53.67,0000 0000 0000 0000 000000
2016-11-01 12:25:30,0.00,1.07,0.00,19.34,24.77,28.32,14.66,49.63,1008.32,2042.98,3099.95,2871.99,3185.93,599.69,598.11,53.72,0000 0000 0000 0000 000000
2016-11-01 12:30:31,0.01,1.07,0.00,19.31,24.77,28.31,14.65,49.07,1008.32,2042.98,3099.53,2871.95,3185.57,599.50,598.18,53.77,0000 0000 0000 0000 000000
2016-11-01 12:35:32,-0.01,1.07,0.00,19.32,24.80,28.31,14.61,48.02,1008.32,2042.98,3099.61,2871.97,3185.47,599.63,598.31,53.82,0000 0000 0000 0000 000000
2016-11-01 12:40:34,0.02,1.07,0.00,19.30,24.80,28.30,14.63,48.10,1008.32,2042.99,3099.10,2871.89,3185.09,600.02,598.68,53.87,0000 0000 0000 0000 000000
2016-11-01 12:45:35,0.02,1.07,0.00,19.31,24.80,28.29,14.73,49.65,1008.32,2042.99,3099.01,2871.45,3185.02,600.17,598.90,53.92,0000 0000 0000 0000 000000
2016-11-01 12:50:37,0.00,1.07,0.00,19.28,24.79,28.31,14.64,49.90,1008.32,2042.99,3098.98,2871.07,3185.00,599.64,598.20,53.97,0000 0000 0000 0000 000000
2016-11-01 12:55:38,0.00,1.07,0.00,19.26,24.79,28.35,14.68,49.05,1008.32,2042.98,3098.60,2871.01,3184.96,599.34,598.07,54.02,0000 0000 0000 0000 000000